logo tempoitalia

Diretta Meteo Djerba Mellita, Tunisialunedì 31 agosto ore 06:00

Mappa
Sereno 28 °C Sereno 24 Ore: T.min 28 T.max 40
Ponente Sud-Est Km/h 11.1 Punto di rugiada: 24 °C Umidità: 78% Visibilità: 0 Km
Il sole sorge alle: 05:49 Il sole tramonta alle: 18:44
31 Agosto 2026 06:00 tempo osservato: Sereno Sereno 28 78 1014 vento: Nord SE 11.1
31 Agosto 2026 05:30 tempo osservato: Sereno Sereno 28 74 1014 vento: Nord SE 14.8
31 Agosto 2026 05:00 tempo osservato: Sereno Sereno 29 70 1014 vento: Nord SE 11.1
31 Agosto 2026 04:30 tempo osservato: Sereno Sereno 29 74 1014 vento: Nord E 11.1
31 Agosto 2026 04:00 tempo osservato: Sereno Sereno 29 70 1015 vento: Nord SE 7.4
31 Agosto 2026 03:30 tempo osservato: Sereno Sereno 30 66 1015 vento: Nord SE 13
31 Agosto 2026 03:00 tempo osservato: Sereno Sereno 31 66 1015 vento: Nord E 11.1
31 Agosto 2026 02:30 tempo osservato: Sereno Sereno 31 66 1015 vento: Nord E/SE 11.1
31 Agosto 2026 02:00 tempo osservato: Sereno Sereno 31 66 1016 vento: Nord E/NE 9.3
31 Agosto 2026 01:30 tempo osservato: Sereno Sereno 32 62 1016 vento: Nord NE 7.4
31 Agosto 2026 01:00 tempo osservato: Sereno Sereno 32 62 1016 vento: Nord N 9.3
31 Agosto 2026 00:30 tempo osservato: Sereno Sereno 33 49 1016 vento: Nord E/NE 18.5
31 Agosto 2026 00:00 tempo osservato: Sereno Sereno 33 55 1017 vento: Nord N 18.5
30 Agosto 2026 23:30 tempo osservato: Sereno Sereno 31 58 1016 vento: Nord S 13
30 Agosto 2026 23:00 tempo osservato: Sereno Sereno 31 58 1016 vento: Nord S/SE 11.1
30 Agosto 2026 22:30 tempo osservato: Sereno Sereno 32 55 1016 vento: Nord S/SE 11.1
30 Agosto 2026 22:00 tempo osservato: Sereno Sereno 32 59 1016 vento: Nord S/SE 11.1
30 Agosto 2026 21:30 tempo osservato: Sereno Sereno 33 55 1015 vento: Nord S/SE 13
30 Agosto 2026 21:00 tempo osservato: Sereno Sereno 33 52 1015 vento: Nord S/SE 13
30 Agosto 2026 20:30 tempo osservato: Sereno Sereno 33 49 1015 vento: Nord SE 14.8
30 Agosto 2026 20:00 tempo osservato: Sereno Sereno 34 43 1014 vento: Nord SE 16.7
30 Agosto 2026 19:30 tempo osservato: Sereno Sereno 34 43 1014 vento: Nord E/SE 20.3
30 Agosto 2026 19:00 tempo osservato: Sereno Sereno 35 41 1013 vento: Nord E/SE 20.3
30 Agosto 2026 18:30 tempo osservato: Sereno Sereno 36 34 1013 vento: Nord E/SE 22.2
30 Agosto 2026 18:00 tempo osservato: Sereno Sereno 37 30 1013 vento: Nord E/SE 20.3
30 Agosto 2026 17:30 tempo osservato: Sereno Sereno 38 27 1013 vento: Nord E 18.5
30 Agosto 2026 17:00 tempo osservato: Sereno Sereno 40 23 1014 vento: Nord E 16.7
30 Agosto 2026 16:30 tempo osservato: Sereno Sereno 40 24 1014 vento: Nord E 14.8
30 Agosto 2026 16:00 tempo osservato: Sereno Sereno 39 24 1014 vento: Nord E 16.7
30 Agosto 2026 15:30 tempo osservato: Sereno Sereno 39 27 1014 vento: Nord E/NE 14.8
30 Agosto 2026 15:00 tempo osservato: Sereno Sereno 39 31 1014 vento: Nord E/NE 14.8
30 Agosto 2026 14:30 tempo osservato: Sereno Sereno 39 35 1015 vento: Nord E/NE 14.8
30 Agosto 2026 14:00 tempo osservato: Sereno Sereno 39 35 1015 vento: Nord E/NE 16.7
30 Agosto 2026 13:30 tempo osservato: Sereno Sereno 39 33 1015 vento: Nord NE 13
30 Agosto 2026 13:00 tempo osservato: Sereno Sereno 38 35 1015 vento: Nord E/NE 13
30 Agosto 2026 12:30 tempo osservato: Sereno Sereno 37 39 1016 vento: Nord NE 13
30 Agosto 2026 12:00 tempo osservato: Sereno Sereno 37 37 1016 vento: Nord NE 14.8
30 Agosto 2026 11:30 tempo osservato: Sereno Sereno 38 29 1016 vento: Nord N 7.4
30 Agosto 2026 11:00 tempo osservato: Sereno Sereno 38 24 1016 vento: Nord O/NO 7.4
30 Agosto 2026 10:30 tempo osservato: Sereno Sereno 37 18 1016 vento: Nord O 13
30 Agosto 2026 10:00 tempo osservato: Sereno Sereno 38 29 1016 vento: Nord O/SO 14.8
30 Agosto 2026 09:30 tempo osservato: Sereno Sereno 36 34 1016 vento: Nord S 14.8
30 Agosto 2026 09:00 tempo osservato: Sereno Sereno 35 36 1015 vento: Nord S/SE 11.1
30 Agosto 2026 08:30 tempo osservato: Sereno Sereno 33 41 1015 vento: Nord S/SE 11.1
30 Agosto 2026 08:00 tempo osservato: Sereno Sereno 32 46 1015 vento: Nord N 5.5
30 Agosto 2026 07:30 tempo osservato: Sereno Sereno 30 55 1015 vento: Nord N 3.7
30 Agosto 2026 07:00 tempo osservato: Sereno Sereno 29 54 1015 vento: Nord N 1.8